Location: Pompeys Pillar
(45.9913°N, 107.9528°W)
Time: 22:47:00
(UTC+00:00)

Tiros 1 - All Passes

Search period start: 28 May 2022 00:00
Search period end: 07 June 2022 00:00
Orbit: 629 x 663 km, 48.4° (Epoch: 28 May)

Date Brightness Start Highest point End Pass type
(mag) Time Alt. Az. Time Alt. Az. Time Alt. Az.
28 May - 06:30:06 10° SSW 06:33:58 27° SE 06:37:52 10° E visible
28 May - 08:11:07 10° WSW 08:15:45 84° SSE 08:20:25 10° ENE visible
28 May - 09:53:30 10° W 09:58:07 64° N 10:02:47 10° E visible
28 May - 11:35:48 10° WNW 11:40:30 85° SSW 11:45:14 10° ESE daylight
28 May - 13:18:20 10° W 13:22:18 28° SW 13:26:19 10° SSE daylight
29 May - 05:16:19 10° SSE 05:18:06 12° SE 05:19:53 10° ESE visible
29 May - 06:55:00 10° SW 06:59:27 49° SSE 07:03:56 10° ENE visible
29 May - 08:36:55 10° W 08:41:34 72° N 08:46:14 10° ENE visible
29 May - 10:19:22 10° WNW 10:24:01 70° N 10:28:42 10° E visible
29 May - 12:01:37 10° WNW 12:06:11 53° SSW 12:10:46 10° SE daylight
29 May - 13:45:12 10° WSW 13:47:37 14° SW 13:50:03 10° SSW daylight
30 May - 05:39:37 10° SSW 05:43:22 25° SE 05:47:08 10° E visible
30 May - 07:20:29 10° WSW 07:25:06 81° SSE 07:29:46 10° ENE visible
30 May - 09:02:50 10° W 09:07:26 64° N 09:12:06 10° E visible
30 May - 10:45:09 10° WNW 10:49:50 89° SSW 10:54:33 10° ESE visible
30 May - 12:27:37 10° W 12:31:41 30° SW 12:35:46 10° SSE daylight
31 May - 04:26:20 10° SSE 04:27:31 11° SE 04:28:42 10° ESE visible
31 May - 06:04:25 10° SW 06:08:49 46° SSE 06:13:15 10° ENE visible
31 May - 07:46:16 10° W 07:50:53 74° NNW 07:55:33 10° ENE visible
31 May - 09:28:42 10° WNW 09:33:20 69° N 09:38:01 10° E visible
31 May - 11:10:58 10° WNW 11:15:32 57° SSW 11:20:09 10° SE daylight
31 May - 12:54:19 10° W 12:57:01 15° SW 12:59:44 10° S daylight
01 Jun - 04:49:08 10° SSW 04:52:45 23° SE 04:56:23 10° E visible
01 Jun - 06:29:50 10° WSW 06:34:27 77° SSE 06:39:06 10° ENE visible
01 Jun - 08:12:10 10° W 08:16:46 64° N 08:21:25 10° E visible
01 Jun - 09:54:30 10° WNW 09:59:10 88° NNE 10:03:53 10° ESE visible
01 Jun - 11:36:55 10° W 11:41:04 32° SW 11:45:14 10° SSE daylight
02 Jun - 05:13:50 10° SW 05:18:11 43° SSE 05:22:34 10° ENE visible
02 Jun - 06:55:36 10° W 07:00:13 76° NNW 07:04:53 10° ENE visible
02 Jun - 08:38:03 10° WNW 08:42:40 67° N 08:47:20 10° E visible
02 Jun - 10:20:18 10° WNW 10:24:53 61° SSW 10:29:30 10° SE visible
02 Jun - 12:03:29 10° W 12:06:25 17° SW 12:09:21 10° S daylight
03 Jun - 03:58:41 10° S 04:02:09 21° SE 04:05:37 10° E visible
03 Jun - 05:39:12 10° WSW 05:43:48 73° SSE 05:48:25 10° ENE visible
03 Jun - 07:21:30 10° W 07:26:06 65° N 07:30:43 10° E visible
03 Jun - 09:03:51 10° WNW 09:08:31 85° NNE 09:13:12 10° ESE visible
03 Jun - 10:46:14 10° W 10:50:26 34° SW 10:54:40 10° SSE visible
04 Jun - 04:23:15 10° SW 04:27:33 40° SSE 04:31:53 10° ENE visible
04 Jun - 06:04:56 10° WSW 06:09:33 79° NNW 06:14:13 10° ENE visible
04 Jun - 07:47:23 10° WNW 07:51:59 66° N 07:56:38 10° E visible
04 Jun - 09:29:38 10° WNW 09:34:14 64° SSW 09:38:51 10° SE visible
04 Jun - 11:12:41 10° W 11:15:48 18° SW 11:18:56 10° S daylight
05 Jun - 03:08:14 10° S 03:11:32 20° SE 03:14:51 10° E daylight
05 Jun - 04:48:34 10° WSW 04:53:08 69° SSE 04:57:45 10° ENE visible
05 Jun - 06:30:49 10° W 06:35:25 65° N 06:40:03 10° ENE visible
05 Jun - 08:13:11 10° WNW 08:17:50 82° NNE 08:22:31 10° ESE visible
05 Jun - 09:55:32 10° W 09:59:48 36° SW 10:04:05 10° SSE visible
06 Jun - 03:32:41 10° SSW 03:36:55 37° SE 03:41:11 10° E visible
06 Jun - 05:14:16 10° WSW 05:18:53 81° NNW 05:23:32 10° ENE visible
06 Jun - 06:56:43 10° WNW 07:01:19 65° N 07:05:56 10° E visible
06 Jun - 08:38:58 10° WNW 08:43:35 68° SSW 08:48:13 10° ESE visible
06 Jun - 10:21:53 10° W 10:25:11 19° SW 10:28:30 10° S visible
